This is the latest recevied weather packets stored in our database for station/object KN6WGU. If no packets are shown the sender has not sent any weather packets the latest 10 day(s).
| Time | Temp. | Humidity | Pressure | Rain* | Wind** | Luminosity | Snow |
|---|---|---|---|---|---|---|---|
| 1777652987 | 6.67° C | 92% | 1006.1 hPa | 1.27 mm | - | 125 W/m² | - |
| 1777652684 | 6.11° C | 92% | 1006.1 hPa | 0 mm | - | 144 W/m² | - |
| 1777652381 | 6.67° C | 93% | 1006.3 hPa | 0 mm | - | 124 W/m² | - |
| 1777652078 | 6.67° C | 93% | 1006.1 hPa | 0 mm | - | 113 W/m² | - |
| 1777651775 | 6.67° C | 94% | 1006.2 hPa | 1.78 mm | - | 134 W/m² | - |
| 1777651471 | 6.67° C | 94% | 1006.3 hPa | 1.78 mm | - | 174 W/m² | - |
| 1777651169 | 6.67° C | 94% | 1006.2 hPa | 1.27 mm | - | 169 W/m² | - |
| 1777650866 | 6.67° C | 95% | 1006.3 hPa | 1.27 mm | - | 165 W/m² | - |
| 1777650562 | 6.11° C | 95% | 1006.2 hPa | 1.78 mm | - | 175 W/m² | - |
| 1777650260 | 6.11° C | 95% | 1006.1 hPa | 1.78 mm | - | 154 W/m² | - |
| 1777649957 | 6.11° C | 95% | 1006.2 hPa | 1.27 mm | - | 67 W/m² | - |
| 1777649655 | 5.56° C | 95% | 1006.3 hPa | 3.05 mm | - | 76 W/m² | - |
| 1777649350 | 5.56° C | 95% | 1006.6 hPa | 1.78 mm | - | 62 W/m² | - |
| 1777649047 | 6.11° C | 95% | 1006.3 hPa | 1.27 mm | - | 68 W/m² | - |
| 1777648745 | 6.11° C | 95% | 1006.3 hPa | 3.05 mm | - | 67 W/m² | - |
| 1777648441 | 6.11° C | 95% | 1006.3 hPa | 3.56 mm | - | 61 W/m² | - |
| 1777648137 | 6.11° C | 95% | 1006.3 hPa | 3.05 mm | - | 66 W/m² | - |
| 1777647833 | 6.11° C | 95% | 1006.3 hPa | 3.05 mm | - | 67 W/m² | - |
| 1777647530 | 6.11° C | 95% | 1006.4 hPa | 3.05 mm | - | 47 W/m² | - |
| 1777647227 | 6.11° C | 94% | 1006.2 hPa | 1.27 mm | - | 56 W/m² | - |
| 1777646924 | 6.11° C | 94% | 1006.3 hPa | 1.78 mm | - | 52 W/m² | - |
| 1777646619 | 6.11° C | 94% | 1006.1 hPa | 1.78 mm | - | 48 W/m² | - |
| 1777646316 | 6.11° C | 94% | 1006.3 hPa | 1.27 mm | - | 45 W/m² | - |
| 1777646013 | 6.11° C | 94% | 1006.1 hPa | 1.27 mm | - | 52 W/m² | - |
| 1777645709 | 6.11° C | 94% | 1006.1 hPa | 1.78 mm | - | 50 W/m² | - |
* Rain latest hour (hover to see other rain measurements)
** Current wind speed in m/s (hover to see current wind gust speed)